Weather History for KHBG - July, 2013

Change the Weather History Date:

Tuesday, July 9, 2013

  Actual Average Record
Temperature  
Mean Temperature 81 °F 82 °F  
Max Temperature 90 °F 92 °F 101 °F (2000)
Min Temperature 71 °F 72 °F 65 °F (1950)
Degree Days  
Heating Degree Days 0 0  
Month to date heating degree days 0 0  
Since 1 June heating degree days 0 0  
Since 1 July heating degree days 0 0  
Cooling Degree Days 16 17  
Month to date cooling degree days 120 148  
Year to date cooling degree days 932 986  
Since 1 June cooling degree days 590 571  
Growing Degree Days 30 (Base 50)    
Moisture  
Dew Point 73 °F    
Average Humidity 78    
Maximum Humidity 97    
Minimum Humidity 59    
Precipitation  
Precipitation T in 0.20 in 3.42 in (1982)
Month to date precipitation 1.20 1.76  
Year to date precipitation 43.49 33.80  
Sea Level Pressure  
Sea Level Pressure 30.15 in    
Wind  
Wind Speed 1 mph (SW)    
Max Wind Speed 13 mph    
Max Gust Speed 26 mph    
Visibility 10 miles    
Events Thunderstorm    
T = Trace of Precipitation, MM = Missing Value Source: NWS Daily Summary

Daily Weather History Graph

Daily Weather History Graph

Search for Another Location

Airport or City:

Trip Planner

Search our weather history database for the weather conditions in past years. The results will help you decide how hot, cold, wet, or windy it might be!

Date:

Astronomy

Jul. 09, 2013 Rise Set
Actual Time 6:00 AM CDT 8:04 PM CDT
Civil Twilight 5:32 AM CDT 8:31 PM CDT
Nautical Twilight 4:59 AM CDT 9:05 PM CDT
Astronomical Twilight 4:23 AM CDT 9:41 PM CDT
Moon 7:16 AM CDT (7/9) 8:51 PM CDT (7/9)
Length of Visible Light 14h 59m
Length of Day
14h 03m
New Moon, 2% of the Moon is Illuminated
Jul 9
New Moon
Jul 15
First Quarter
Jul 22
Full
Jul 29
Last Quarter
Aug 6
New

Hourly Weather History & Observations

Time (CDT) Temp. Heat Index Dew Point Humidity Pressure Visibility Wind Dir Wind Speed Gust Speed Precip Events Conditions
12:53 AM 73.0 °F - 71.1 °F 93% 30.15 in 10.0 mi Calm Calm - N/A   Clear
1:53 AM 73.0 °F - 71.1 °F 93% 30.14 in 10.0 mi Calm Calm - N/A   Scattered Clouds
2:53 AM 73.0 °F - 71.1 °F 93% 30.13 in 10.0 mi Calm Calm - N/A   Clear
3:53 AM 71.1 °F - 70.0 °F 96% 30.14 in 10.0 mi Calm Calm - N/A   Clear
4:53 AM 71.1 °F - 70.0 °F 96% 30.16 in 10.0 mi Calm Calm - N/A   Clear
5:53 AM 71.1 °F - 70.0 °F 96% 30.16 in 10.0 mi Calm Calm - N/A   Clear
6:25 AM 71.6 °F - 69.8 °F 94% 30.18 in 10.0 mi Calm Calm - N/A   Scattered Clouds
6:35 AM 71.6 °F - 69.8 °F 94% 30.18 in 10.0 mi Calm Calm - N/A   Mostly Cloudy
6:53 AM 73.0 °F - 71.1 °F 93% 30.18 in 10.0 mi Calm Calm - N/A   Scattered Clouds
7:38 AM 73.4 °F - 71.6 °F 94% 30.20 in 10.0 mi Calm Calm - N/A   Mostly Cloudy
7:53 AM 75.0 °F - 72.0 °F 90% 30.19 in 10.0 mi Calm Calm - N/A   Mostly Cloudy
8:20 AM 77.0 °F - 73.4 °F 89% 30.20 in 10.0 mi WNW 3.5 mph - N/A   Scattered Clouds
8:53 AM 79.0 °F - 73.9 °F 84% 30.20 in 10.0 mi Calm Calm - N/A   Scattered Clouds
9:53 AM 82.0 °F 87.9 °F 73.9 °F 76% 30.20 in 10.0 mi Calm Calm - N/A   Partly Cloudy
10:53 AM 84.0 °F 91.2 °F 73.9 °F 72% 30.19 in 10.0 mi Calm Calm - N/A   Mostly Cloudy
11:05 AM 84.2 °F 90.9 °F 73.4 °F 70% 30.20 in 10.0 mi Calm Calm - N/A   Mostly Cloudy
11:13 AM 86.0 °F 93.4 °F 73.4 °F 66% 30.20 in 10.0 mi Calm Calm - N/A   Mostly Cloudy
11:32 AM 86.0 °F 93.4 °F 73.4 °F 66% 30.19 in 10.0 mi NNW 3.5 mph 26.5 mph N/A   Mostly Cloudy
11:42 AM 87.8 °F 95.6 °F 73.4 °F 62% 30.19 in 10.0 mi NNW 3.5 mph - N/A   Mostly Cloudy
11:53 AM 87.1 °F 95.4 °F 73.9 °F 65% 30.18 in 10.0 mi Variable 3.5 mph - N/A   Scattered Clouds
12:53 PM 86.0 °F 93.0 °F 73.0 °F 65% 30.17 in 10.0 mi Calm Calm - N/A   Overcast
1:53 PM 86.0 °F 93.0 °F 73.0 °F 65% 30.14 in 10.0 mi Calm Calm - 0.00 in   Scattered Clouds
2:53 PM 89.1 °F 99.1 °F 75.0 °F 63% 30.13 in 10.0 mi SSE 4.6 mph - N/A   Clear
3:12 PM 89.6 °F 98.2 °F 73.4 °F 59% 30.13 in 10.0 mi WSW 6.9 mph - N/A Thunderstorm Clear
3:32 PM 87.8 °F 95.6 °F 73.4 °F 62% 30.12 in 10.0 mi SE 6.9 mph - N/A   Clear
3:53 PM 89.1 °F 97.0 °F 73.0 °F 59% 30.11 in 10.0 mi SSW 5.8 mph 20.7 mph N/A   Clear
4:34 PM 87.8 °F 93.8 °F 71.6 °F 58% 30.11 in 10.0 mi SSW 3.5 mph - N/A Thunderstorm Clear
4:49 PM 87.8 °F 95.6 °F 73.4 °F 62% 30.10 in 10.0 mi South 3.5 mph - N/A   Clear
4:53 PM 87.1 °F 95.4 °F 73.9 °F 65% 30.09 in 10.0 mi South 4.6 mph - N/A   Clear
5:53 PM 84.0 °F 93.7 °F 77.0 °F 79% 30.09 in 10.0 mi NE 4.6 mph - N/A   Partly Cloudy
6:53 PM 82.9 °F 90.8 °F 75.9 °F 79% 30.08 in 10.0 mi Calm Calm - N/A   Clear
7:53 PM 81.0 °F 87.9 °F 77.0 °F 88% 30.08 in 10.0 mi Calm Calm - N/A   Partly Cloudy
8:53 PM 80.1 °F 86.4 °F 78.1 °F 94% 30.11 in 10.0 mi Calm Calm - N/A   Clear
9:53 PM 79.0 °F - 77.0 °F 94% 30.12 in 10.0 mi Calm Calm - N/A   Clear
10:53 PM 78.1 °F - 75.0 °F 90% 30.12 in 10.0 mi Calm Calm - N/A   Clear
11:53 PM 78.1 °F - 73.9 °F 87% 30.11 in 10.0 mi Calm Calm - N/A   Clear